Location: ?akov
(49.8247°N, 14.8377°E)
Time: 06:58:07
(UTC+00:00)

Daily predictions for brighter satellites

Satellite Brightness Start Highest point End
(mag) Time Altitude Azimuth Time Altitude Azimuth Time Altitude Azimuth
MOS 1-B 4.4 15:32:15 10° SSE 15:38:00 69° ENE 15:43:47 10° NNW
Cosmos 2154 Rocket 4.3 15:32:36 10° N 15:38:41 46° ENE 15:44:45 10° SE
SL-16 R/B 4.4 15:34:18 10° N 15:39:11 25° NW 15:44:04 10° WSW
Cosmos 1633 3.6 15:36:08 10° NNW 15:39:36 49° W 15:43:04 10° S
USA 267 3.5 15:37:14 10° E 15:43:36 57° NNE 15:49:59 10° WNW
CZ-4B R/B 3.3 15:45:07 10° ENE 15:45:49 11° E 15:46:31 10° ESE
Cosmos 540 Rocket 3.5 15:41:50 10° SSW 15:46:58 83° ESE 15:52:07 10° NNE
Aureole 2 Rocket 2.8 15:44:46 10° NNW 15:47:27 53° WSW 15:50:14 10° S
NOSS 2-1 (E) 4.3 15:43:28 10° NW 15:48:27 86° NE 15:55:30 10° SE
Cosmos 1862 3.6 15:44:53 10° N 15:48:49 47° ENE 15:52:42 10° SSE
Cosmos 2360 Rocket 3.1 15:43:57 10° SW 15:49:22 46° NW 15:54:48 10° NNE
NOSS 0 Rocket 4.5 15:44:03 10° S 15:49:48 41° ESE 15:55:35 10° NE
SL-24 R/B - RUBIN 2 4.4 15:45:06 10° NW 15:51:35 71° NE 15:57:21 10° SE
Cosmos 2084 Rocket 4.2 15:49:04 10° WSW 15:53:02 45° NW 15:57:09 10° NE
NOAA 12 4.2 15:50:20 10° SE 15:55:31 56° ENE 16:00:44 10° N
Cosmos 2219 Rocket 2.3 15:51:50 10° SSW 15:57:30 90° NW 16:03:11 10° NNE
ERS-2 3.8 15:55:28 10° NE 15:57:49 16° E 16:00:10 10° SE
Cosmos 841 Rocket 3.6 15:53:49 10° SSW 15:59:04 83° WNW 16:04:19 10° NNE
Cosmos 1607 4.4 15:53:10 10° SW 15:59:28 64° NW 16:05:55 10° NE
Landsat 5 3.6 15:55:21 10° NNE 15:59:41 65° ESE 16:04:07 10° S
CZ-4B R/B 3.1 15:57:54 10° SSE 16:03:12 69° ENE 16:08:29 10° NNW
Envisat 3.1 15:58:09 10° SSE 16:03:14 84° WSW 16:08:22 10° NNW
Cosmos 1980 Rocket 4.4 16:01:42 10° NW 16:03:46 12° NNW 16:05:51 10° N
H-2A R/B 2.1 15:59:53 10° NNE 16:03:58 54° ESE 16:08:06 10° S
CZ-4 R/B 3.1 16:02:31 10° E 16:04:32 14° ENE 16:06:33 10° NNE
Cosmos 2327 Rocket 4.4 15:58:51 10° N 16:04:59 69° ENE 16:11:10 10° SSE
SMAP 3.0 16:00:40 10° SSE 16:05:16 66° ENE 16:09:54 10° N
SL-16 R/B 4.1 16:00:58 10° W 16:05:23 23° NW 16:09:49 10° NNE
Cosmos 2074 Rocket 4.2 15:59:30 10° N 16:05:46 82° W 16:12:01 10° S
Cosmos 2237 Rocket 2.7 16:01:51 10° S 16:07:02 40° ESE 16:12:16 10° NE
NOAA 11 4.3 16:04:54 10° SE 16:10:06 51° ENE 16:15:22 10° N
FengYun 1-2 T 4.3 16:06:25 10° SE 16:11:49 56° ENE 16:17:12 10° N
GENESIS II 4.1 16:07:50 10° NW 16:11:49 70° NE 16:15:42 10° SE
CREW DRAGON DEMO-1 DEB 2.7 16:10:45 10° WNW 16:13:45 71° N 16:16:01 16° E
Cosmos 1633 Rocket 4.1 16:10:23 10° NNE 16:14:01 24° ENE 16:17:36 10° SE
H-2A R/B 3.4 16:12:15 10° E 16:15:40 18° NE 16:19:02 10° NNE
Cosmos 1939 Rocket 3.6 16:13:20 10° SE 16:16:43 29° ENE 16:20:07 10° N
Cosmos 2322 4.4 16:11:16 10° SW 16:16:48 53° NW 16:22:24 10° NNE
Cosmos 2369 Rocket 3.5 16:13:32 10° N 16:17:43 20° NE 16:20:20 15° ENE
USA 281 3.6 16:11:45 10° ESE 16:17:46 41° NE 16:23:50 10° NNW
Cosmos 1869 4.4 16:14:06 10° SSW 16:18:01 47° WNW 16:22:01 10° N
Cosmos 2184 Rocket 4.4 16:11:46 10° NNW 16:18:08 71° W 16:24:27 10° S
CORIOLIS 4.1 16:15:29 10° SSE 16:20:52 79° ENE 16:26:20 10° NNW
Cosmos 1814 Rocket 4.4 16:18:34 10° SSW 16:23:53 69° WNW 16:29:12 10° NNE
Cosmos 1980 3.8 16:19:33 10° S 16:25:06 58° ESE 16:30:35 11° NE
CSL-04 DEB 4.4 16:21:13 10° NNE 16:25:17 64° ESE 16:29:24 10° S
Cosmos 1295 Rocket 4.4 16:21:43 10° N 16:27:54 80° E 16:34:07 10° SSE
Cosmos 2221 3.2 16:24:33 10° SSW 16:28:50 58° WNW 16:33:07 10° N
Cosmos 1500 Rocket 4.4 16:28:21 10° NNW 16:32:38 53° W 16:36:55 10° S
Abrixas rocket 4.4 16:31:59 10° WSW 16:34:03 19° SSW 16:36:05 10° SSE
YAOGAN 6 4.1 16:32:29 10° S 16:35:58 41° W 16:39:26 10° NNW
CZ-4C R/B 4.3 16:34:18 10° N 16:37:44 42° WNW 16:41:11 10° SW
Cosmos 405 Rocket 4.1 16:37:12 10° NNW 16:40:54 43° W 16:44:39 10° SSW
ADEOS Rocket 4.1 16:35:03 10° N 16:42:29 61° WNW 16:50:06 10° SW
Cosmos 2297 3.8 16:38:14 10° NNW 16:43:49 54° NE 16:49:23 10° SE
YAOGAN 1 3.3 16:44:13 22° ESE 16:46:03 30° ENE 16:49:50 10° N
Cosmos 1943 Rocket 2.7 16:41:58 10° NNW 16:47:07 37° NE 16:50:06 22° ESE
Cosmos 389 Rocket 2.4 16:44:16 10° S 16:47:38 57° E 16:49:21 26° NNE
Cosmos 1470 Rocket 4.2 16:45:35 10° N 16:49:27 30° ENE 16:50:03 29° E
Cosmos 44 3.6 16:45:18 10° NW 16:50:27 55° NE 16:54:10 19° ESE
USA 215 3.4 16:47:51 22° ENE 16:52:13 59° SE 16:58:39 10° SW
Cosmos 1933 3.7 16:48:26 10° SSE 16:52:15 42° E 16:53:48 29° NE
YAOGAN 3 4.5 16:48:02 10° SSE 16:52:22 74° ENE 16:56:45 10° N
BREEZE-M DEB (TANK) 1.8 16:50:51 10° WSW 16:52:54 58° SSE 16:53:03 56° SE
Cosmos 2322 Rocket 4.5 16:50:28 10° WNW 16:53:49 16° NNW 16:57:12 10° N
COSMO-SKYMED 1 2.8 16:52:07 20° NNE 16:54:51 47° E 16:59:02 10° S
SL-16 R/B 2.8 16:49:48 10° S 16:54:54 36° ESE 16:56:52 28° ENE
Cosmos 1867 4.0 16:50:04 10° S 16:55:08 42° ESE 16:57:16 29° ENE
CZ-2C R/B 3.2 16:51:23 10° SE 16:56:14 45° ENE 17:00:53 10° N
CZ-4 R/B 4.4 16:52:34 10° SSE 16:56:38 56° ENE 17:00:42 10° N
ARGOS 4.0 16:56:59 28° ENE 16:57:11 28° ENE 17:01:42 10° N
Okean-O 2.9 16:53:16 10° SE 16:57:29 44° ENE 17:01:42 10° N
Cosmos 2218 Rocket 3.9 16:51:41 10° N 16:57:48 60° ENE 17:03:50 10° SSE
PSLV R/B 4.4 17:00:30 36° E 17:00:30 36° E 17:04:10 10° SSE
Sich 1 3.5 16:59:48 10° NNW 17:04:11 64° W 17:08:29 10° S
Cosmos 1606 2.8 17:01:22 10° SSW 17:05:16 81° W 17:08:40 13° N
DEBRIS 4.3 16:51:49 10° W 17:08:54 88° S 17:11:14 34° E
Cosmos 2366 rocket 3.9 17:02:41 10° N 17:08:55 69° ENE 17:15:03 10° SSE
Okean O Rocket 3.3 17:04:57 10° SSW 17:08:56 34° W 17:12:57 10° NNW
Helios 1A Rocket 2.9 17:07:31 20° SE 17:10:07 56° ENE 17:14:05 10° N
Cosmos 2333 Rocket 3.8 17:05:58 10° WSW 17:10:57 31° NW 17:15:57 10° NNE
Cosmos 1932 4.5 17:05:02 10° SSW 17:11:34 83° SE 17:15:33 26° NE
ISS -3.8 17:10:11 10° WSW 17:13:33 72° SSE 17:13:33 72° SSE
Cosmos 1356 4.4 17:10:39 10° NNW 17:13:58 48° W 17:17:17 10° S
Meteor 1-20 Rocket 4.2 17:09:32 10° NNW 17:15:26 88° E 17:21:17 10° S
SAR-Lupe-4 3.4 17:15:58 71° ENE 17:16:07 73° ESE 17:19:41 10° S
COSMOS 2428 4.1 17:11:11 10° WSW 17:16:22 34° NW 17:21:31 10° NNE
CZ-4B R/B 2.1 17:17:15 31° NNW 17:18:21 48° WNW 17:21:20 10° SSW
SKYMED 3 4.4 17:16:27 25° NNE 17:18:58 81° ESE 17:23:19 10° SSW
Cosmos 2278 Rocket 4.3 17:15:41 10° NW 17:20:26 28° WSW 17:25:11 10° SSW
Cosmos 1666 Rocket 3.9 17:16:57 10° NNW 17:21:20 66° W 17:25:42 10° S
Cosmos 1151 Rocket 2.8 17:18:13 10° S 17:22:29 72° E 17:23:24 52° NNE
IRS-1C Rocket 4.3 17:20:47 10° S 17:26:03 71° WSW 17:31:21 10° NNW
USA 267 3.3 17:21:44 20° SE 17:26:30 76° SW 17:33:05 10° WNW
Cosmos 1328 Rocket 3.3 17:24:06 10° S 17:28:23 73° E 17:28:37 70° ENE
Lacrosse 5 rocket 3.1 17:26:50 10° SSW 17:28:08 18° S 17:28:08 18° S
ERS-2 3.1 17:29:46 24° N 17:31:37 46° WNW 17:35:07 10° SW
EO 1 Delta rocket 4.2 17:28:06 10° NNE 17:33:15 82° E 17:39:40 10° S
SAR-Lupe-1 4.2 17:33:31 70° WSW 17:33:31 70° WSW 17:36:51 10° SSW
SL-24 R/B 3.8 17:32:45 60° N 17:33:27 85° WNW 17:37:16 10° SSW
Meteor 1-25 Rocket 4.4 17:28:37 10° NNW 17:34:11 70° W 17:39:48 10° S
CZ-2D R/B 3.9 17:32:02 10° S 17:35:47 55° W 17:39:33 10° NNW
CSL-04 Debris 4.1 17:36:09 36° SE 17:38:25 68° ENE 17:43:54 10° N
CZ-4 R/B 1.4 17:38:23 60° SSW 17:38:59 75° WSW 17:43:00 10° NNW
Cosmos 2219 Rocket 4.2 17:37:52 10° W 17:42:14 23° NW 17:46:26 11° N
SKYMED 2 4.0 17:40:45 27° N 17:42:59 60° WNW 17:47:15 10° SSW
SL-24 DEB 4.3 17:41:45 10° N 17:46:33 79° W 17:51:17 10° S
Cosmos 2285 Rocket 4.3 17:42:30 10° NNW 17:48:52 66° WSW 17:55:09 10° S
Cosmos 2237 Rocket 3.3 17:45:48 10° WSW 17:51:06 41° NW 17:54:26 21° N
Cosmos 1633 Rocket 4.4 17:47:51 10° NNW 17:51:57 39° W 17:56:01 10° SSW
H-2A R/B 2.0 17:52:26 40° SSE 17:54:27 89° WSW 17:59:42 10° NNW
Cosmos 773 Rocket 4.0 17:54:31 10° SSW 17:59:15 73° S 17:59:15 73° S
USA 281 3.9 17:55:45 10° S 18:02:08 54° WSW 18:08:35 10° NNW
CSL-04 Rocket 3.5 18:01:44 74° S 18:02:14 86° WSW 18:07:36 10° NNW
Cosmos 2369 Rocket 2.2 17:56:59 10° NNW 18:02:10 70° N 18:02:10 70° N
MOS 1 Rocket 3.6 18:03:47 71° N 18:04:23 83° WNW 18:09:50 10° SSW
Cosmos 1821 Rocket 3.8 18:05:07 10° N 18:11:21 86° E 18:11:29 85° ESE
YAOGAN 1 4.1 18:21:23 32° WSW 18:22:05 34° W 18:26:04 10° NNW
Cosmos 1943 Rocket 3.1 18:25:43 10° NW 18:30:58 45° WSW 18:31:41 42° SW
USA 215 3.4 18:35:13 65° NNW 18:35:19 65° NNW 18:41:47 10° W
ARGOS 4.1 18:38:31 44° NW 18:38:31 44° NW 18:42:29 10° NNW
SL-16 R/B 3.1 18:33:29 10° SW 18:38:47 46° WNW 18:38:47 46° WNW
